This demonstration page uses our WeatherBlox Daily Observations layout. Learn more.

Left ArrowRight Arrow

39.92423, -83.80882

Hourly Observations for August 17, 2020

Temp ( °F °C ) Dew Point ( °F °C ) Humidity (%) Winds ( mph kmh ) Pressure ( in mb ) Visibility ( mi km ) Precip ( " mm )
12:56 am 00:56 Clear 62 16.7 62 16.7 100 100 N N/A 30.00 1016 10 16 N/A
1:56 am 01:56 Clear 62 16.7 62 16.7 100 100 N N/A 30.01 1016 10 16 N/A
2:56 am 02:56 Clear 61 16.1 61 16.1 100 100 N N/A 30.00 1016 10 16 N/A
3:56 am 03:56 Clear 60 15.6 60 15.6 100 100 W 6 9 30.01 1016 10 16 N/A
4:56 am 04:56 Clear 60 15.6 60 15.6 100 100 N N/A 30.01 1016 10 16 N/A
5:56 am 05:56 Clear 59 15 59 15 100 100 SW 3 6 30.01 1016 8 13 N/A
6:56 am 06:56 Sunny with Mist and Fog 58 14.4 58 14.4 100 100 N N/A 30.02 1017 6 10 N/A
7:56 am 07:56 Sunny 61 16.1 61 16.1 100 100 N N/A 30.02 1017 10 16 N/A
8:56 am 08:56 Sunny 67 19.4 63 17.2 87 87 W 5 7 30.03 1017 10 16 N/A
9:56 am 09:56 Sunny 71 21.7 63 17.2 76 76 WSW 3 6 30.02 1017 10 16 N/A
10:56 am 10:56 Sunny 74 23.3 65 18.3 74 74 SW 3 6 30.02 1017 10 16 N/A
11:56 am 11:56 Sunny 76 24.4 64 17.8 67 67 WSW 6 9 30.02 1017 10 16 N/A
12:56 pm 12:56 Sunny 80 26.7 66 18.9 62 62 W 8 13 30.01 1016 10 16 N/A
1:56 pm 13:56 Sunny 80 26.7 65 18.3 60 60 W 10 17 30.00 1016 10 16 N/A
2:56 pm 14:56 Sunny 83 28.3 61 16.1 48 48 WNW 15 24 29.98 1015 10 16 N/A
3:56 pm 15:56 Mostly Sunny 83 28.3 62 16.7 49 49 W 12 19 29.97 1015 10 16 N/A
4:56 pm 16:56 Mostly Sunny 82 27.8 62 16.7 51 51 WNW 14 22 29.96 1015 10 16 N/A
5:56 pm 17:56 Sunny 80 26.7 64 17.8 58 58 W 13 20 29.96 1015 10 16 N/A
6:56 pm 18:56 Sunny 78 25.6 63 17.2 60 60 W 10 17 29.96 1015 10 16 N/A
7:56 pm 19:56 Partly Cloudy 73 22.8 62 16.7 69 69 W 7 11 29.97 1015 10 16 N/A
8:56 pm 20:56 Partly Cloudy 69 20.6 64 17.8 84 84 SW 5 7 29.98 1015 10 16 N/A
9:56 pm 21:56 Cloudy 68 20 63 17.2 84 84 W 6 9 29.98 1015 10 16 N/A
10:56 pm 22:56 Cloudy 70 21.1 63 17.2 79 79 WNW 7 11 29.98 1015 10 16 N/A
11:56 pm 23:56 Cloudy 70 21.1 63 17.2 79 79 WNW 6 9 29.98 1015 10 16 N/A

Powered by AerisWeather